Regional Weather Roundup
Issued by NWS Jackson, KY

Home | Current Version | Previous Version | Text Only | Print | Product List | Glossary On
Versions: 1 2 3 4 5 6 7 8 9 10 11 12 13 14 15 16 17 18 19 20 21 22 23 24 25 26 27
000
ASUS43 KJKL 261010
RWRJKL

EAST KENTUCKY HOURLY WEATHER ROUNDUP
NATIONAL WEATHER SERVICE JACKSON KY
600 AM EDT MON JUN 26 2017

NOTE: "FAIR" INDICATES FEW OR NO CLOUDS BELOW 12,000 FEET WITH
NO SIGNIFICANT WEATHER AND/OR OBSTRUCTIONS TO VISIBILITY.

* THESE REPORTS ARE NOT UNDER NWS QUALITY CONTROL AND MAY NOT
  REPORT WEATHER SUCH AS PRECIPITATION AND FOG.

KYZ079-080-083-085-087-088-110-112-115-119-120-261100
...EASTERN KENTUCKY...

CITY           SKY/WX    TMP DP  RH WIND       PRES   REMARKS
JACKSON        CLEAR     55  51  86 CALM      30.17R
LONDON         PTCLDY    54  52  93 CALM      30.18R
SOMERSET*      CLEAR     52  52 100 CALM      30.19R
MONTICELLO*    MOCLDY    56  54  93 N8        30.20R
WILLIAMSBURG*  MOSUNNY   50  50 100 CALM      30.18S
MIDDLESBORO*   CLEAR     51  51 100 CALM      30.21S
HARLAN APT*    CLOUDY    52  50  93 CALM      30.20S
PIKE CO APT*     N/A     58  51  77 S3        30.16R
BIG SANDY APT* SUNNY     58  52  79 S3        30.16R
MOREHEAD APT*  FOG       54  52  94 S3        30.16S VSB 1/4
$$

KYZ035-036-041-042-044-050-067-078-099-261100
...CENTRAL KENTUCKY...

CITY           SKY/WX    TMP DP  RH WIND       PRES   REMARKS
MT STERLING*   CLEAR     52  52 100 W3        30.17R
FLEMING/MASON* CLEAR     53  50  87 W5        30.16R
DANVILLE*      CLEAR     54  50  87 CALM      30.19R
LEXINGTON      CLEAR     59  47  64 CALM      30.16R
FRANKFORT      CLEAR     54  49  83 CALM      30.15R
LOUISVILLE     PTCLDY    61  49  64 NW6       30.16R
LEBANON*         N/A    N/A N/A N/A MISG        N/A
GLASGOW*       CLOUDY    58  58 100 CALM      30.18R
BOWLING GREEN  CLEAR     63  58  83 CALM      30.18R
$$

KYZ091>093-OHZ055-061-077-WVZ005-015-034-035-042-261100
...SOUTHERN OHIO/WEST VIRGINIA...

CITY           SKY/WX    TMP DP  RH WIND       PRES   REMARKS
COVINGTON      CLEAR     55  50  83 W8        30.14R
COLUMBUS       PTCLDY    56  52  86 S3        30.09R
DAYTON         PTCLDY    55  49  80 W9        30.13R
WILMINGTON     CLEAR     57  51  80 W7        30.12R
HUNTINGTON     CLEAR     54  52  93 CALM      30.12S
CHARLESTON     PTCLDY    54  52  93 CALM      30.13R
PINEVILLE*     CLEAR     50  49  97 MISG      30.23R
BECKLEY        PTCLDY    51  46  83 S5        30.19R
BLUEFIELD      CLEAR     53  44  71 W5        30.21R
LOGAN CO APT*    N/A     57  52  82 CALM      30.16R
$$

VAZ002-007-008-TNZ017-027-036-066-071-261100
...SOUTHWEST VIRGINIA/EAST TENNESSEE...

CITY           SKY/WX    TMP DP  RH WIND       PRES   REMARKS
WISE*          CLEAR     54  45  71 CALM      30.23R
JONESVILLE*      N/A     50  50 100 CALM      30.22R
ABINGDON*      CLEAR     54  52  93 CALM      30.20S
BRISTOL        PTCLDY    51  51 100 CALM      30.20R
MORRISTOWN*    SUNNY     55  52  88 CALM      30.17S
SEVIERVILLE*   SUNNY     52  50  93 CALM      30.18S
KNOXVILLE      CLEAR     57  52  83 CALM      30.17S
LAFOLLETTE*    SUNNY     52  52 100 CALM      30.22S
OAK RIDGE      CLEAR     55  52  89 CALM      30.19S
CROSSVILLE     CLEAR     52  50  93 W3        30.22R
NASHVILLE      CLOUDY    64  57  78 CALM      30.18R
$$

...KEY TO REMARKS...
VSB - VISIBILITY IN MILES
WCI - WIND CHILL INDEX
HX  - HEAT INDEX

$$




USA.gov is the U.S. government's official web portal to all federal, state and local government web resources and services.